Stations météo

réclame
Mon MeteoGroup
Nikkaluokta, Suède (2036): Température de l'air & dewpoint: 18.01.2020 13:00:00 - 24.01.2020 13:00:00 (CET)Nikkaluokta, Suède (2036): Vitesse du vent & gusts: 18.01.2020 13:00:00 - 24.01.2020 13:00:00 (CET)Nikkaluokta, Suède (2036): Direction du vent: 18.01.2020 13:00:00 - 24.01.2020 13:00:00 (CET)Nikkaluokta, Suède (2036): reduced air pressure: 18.01.2020 13:00:00 - 24.01.2020 13:00:00 (CET)Nikkaluokta, Suède (2036): visibility: 18.01.2020 13:00:00 - 24.01.2020 13:00:00 (CET)Nikkaluokta, Suède (2036): Quantités de précipitations: 18.01.2020 13:00:00 - 24.01.2020 13:00:00 (CET)
Date & Time tt [°C] td [°C] ff [km/h] ff [knt] fx [km/h] fx [knt] dd ppp [hPa] vv [km] rr [mm]
24.01.2020 13:00:00 - - - - - - - - - -
24.01.2020 12:00:00 -5,8 -10,2 5 3 20 11 SW 986,1 - 0,0
24.01.2020 11:00:00 -3,6 -9,6 15 8 33 18 W 986,1 - 0,0
24.01.2020 10:00:00 -3,8 -11,1 16 9 25 14 WNW 986,2 - -
24.01.2020 09:00:00 -9,9 -12,4 9 5 16 9 WNW 987,7 - -
24.01.2020 08:00:00 -7,8 -11,1 8 4 28 15 WNW 987,8 - 0,0
24.01.2020 07:00:00 -3,7 -6,5 21 11 33 18 W 987,0 - -
24.01.2020 06:00:00 -7,6 -11,8 7 4 19 11 ESE 987,5 - -
24.01.2020 05:00:00 -6,6 -10,0 5 3 21 11 W 987,6 - -
24.01.2020 04:00:00 -3,7 -9,5 12 7 42 23 W 987,3 - -
24.01.2020 03:00:00 -2,5 -8,6 22 12 36 19 W 986,8 - -
24.01.2020 02:00:00 -2,7 -4,7 25 14 44 24 W 987,4 - 0,0
24.01.2020 01:00:00 -1,2 -6,3 24 13 40 21 WSW 986,9 - 0,0
24.01.2020 00:00:00 -1,1 -6,4 19 10 36 19 W 987,0 - 0,0
23.01.2020 23:00:00 -1,0 -7,2 21 11 41 22 WSW 986,8 - 0,0
23.01.2020 22:00:00 -8,8 -10,0 4 2 11 6 E 987,9 - -
23.01.2020 21:00:00 -6,5 -7,4 8 4 19 10 E 987,6 - -
23.01.2020 20:00:00 -6,6 -7,8 8 4 14 7 NE 987,3 - -
23.01.2020 19:00:00 -4,8 -5,5 8 4 19 10 E 987,4 - -
23.01.2020 18:00:00 -5,8 -7,2 4 2 14 8 E 987,9 - -
23.01.2020 17:00:00 -3,9 -5,2 6 4 22 12 E 988,4 - 0,1
23.01.2020 16:00:00 -4,1 -5,4 9 5 24 13 E 988,9 - 0,1
23.01.2020 15:00:00 -3,7 -5,7 16 8 27 15 E 989,3 10 0,0
23.01.2020 14:00:00 -3,7 -5,9 - - 13 7 - 990,3 - 0,0
23.01.2020 13:00:00 -3,9 -5,6 5 3 19 11 E 991,9 38 0,0
23.01.2020 12:00:00 -4,0 -5,0 5 3 9 5 ESE 993,7 6 0,4
23.01.2020 11:00:00 -3,3 -4,7 - - 22 12 - 995,6 - 0,5
23.01.2020 10:00:00 -4,1 -4,8 - - 22 12 - 997,3 - 0,7
23.01.2020 09:00:00 -4,0 -5,0 7 4 21 12 ENE 999,1 0,9 0,7
23.01.2020 08:00:00 -4,3 -5,8 7 4 14 7 NE 1001,3 1,2 0,3
23.01.2020 07:00:00 -3,4 -7,7 - - - - - 1002,8 - 0,0
23.01.2020 06:00:00 -5,2 -9,1 - - - - - 1004,9 - 0,0
23.01.2020 05:00:00 -8,0 -11,0 - - 19 10 - 1007,0 - 0,0
23.01.2020 04:00:00 -7,1 -11,3 6 4 19 10 SSE 1008,5 50 0,0
23.01.2020 03:00:00 -9,0 -12,5 9 5 16 8 SE 1010,3 50 0,0
23.01.2020 02:00:00 -9,2 -13,1 3 2 15 8 ESE 1011,4 50 0,0
23.01.2020 01:00:00 -7,6 -12,7 9 5 17 9 E 1012,0 50 0,0
23.01.2020 00:00:00 -6,9 -12,6 6 3 12 6 SSE 1012,4 50 0,0
22.01.2020 23:00:00 -5,6 -12,1 6 3 18 10 E 1011,9 50 0,0
22.01.2020 22:00:00 -6,5 -11,9 5 3 16 9 N 1011,8 50 0,0
22.01.2020 21:00:00 -2,3 -11,8 8 4 52 28 WNW 1011,8 50 0,0
22.01.2020 20:00:00 -1,9 -11,2 26 14 47 25 WNW 1011,3 50 0,0
22.01.2020 19:00:00 -3,1 -10,2 19 10 44 24 W 1011,5 50 0,0
22.01.2020 18:00:00 -3,4 -10,5 23 12 50 27 NW 1011,7 50 0,0
22.01.2020 17:00:00 -2,6 -11,6 31 17 54 29 W 1011,2 4,4 0,0
22.01.2020 16:00:00 -4,0 -10,5 10 6 28 15 WNW 1011,1 50 0,0
22.01.2020 15:00:00 -4,3 -11,8 21 11 32 17 W 1011,0 50 0,0
22.01.2020 14:00:00 -3,9 -12,3 16 9 34 18 W 1010,8 50 0,0
22.01.2020 13:00:00 -3,9 -10,3 24 13 35 19 NNW 1010,2 50 0,0
22.01.2020 12:00:00 -3,8 -8,8 22 12 46 25 NNW 1009,7 22 0,0
22.01.2020 11:00:00 -3,4 -8,6 25 14 48 26 NW 1009,0 6 0,0
22.01.2020 10:00:00 -3,5 -8,4 16 9 30 16 NNW 1007,7 28 0,0
22.01.2020 09:00:00 -2,9 -9,4 17 9 49 26 NW 1006,5 28 0,1
22.01.2020 08:00:00 -3,2 -4,6 34 18 53 29 NNW 1004,9 0,6 0,1
22.01.2020 07:00:00 -2,0 -7,9 17 9 38 20 NNW 1003,1 28 0,0
22.01.2020 06:00:00 -2,1 -8,4 11 6 41 22 NNW 1002,4 50 0,0
22.01.2020 05:00:00 -1,6 -8,4 22 12 39 21 WNW 1001,6 50 0,0
22.01.2020 04:00:00 -2,0 -8,4 14 8 25 13 NW 1000,2 50 0,0
22.01.2020 03:00:00 -3,3 -9,5 5 3 31 17 NW 999,4 50 0,0
22.01.2020 02:00:00 -3,5 -9,5 22 12 44 24 NNW 997,5 50 0,0
22.01.2020 01:00:00 -3,2 -10,3 16 8 37 20 WNW 995,8 50 0,0
22.01.2020 00:00:00 -3,7 -10,1 17 9 39 21 NW 994,4 50 0,0
21.01.2020 23:00:00 -5,0 -11,4 15 8 29 15 NW 993,2 50 0,0
21.01.2020 22:00:00 -8,4 -12,6 11 6 - - NW 993,1 50 0,0
21.01.2020 21:00:00 -3,3 -8,9 20 11 30 16 W 991,7 50 0,0
21.01.2020 20:00:00 -7,7 -8,6 2 1 10 6 W 992,2 50 0,0
21.01.2020 19:00:00 -4,5 -5,6 2 1 31 17 W 991,6 16 0,1
21.01.2020 18:00:00 -4,0 -5,0 21 11 42 23 W 990,9 0,8 0,6
21.01.2020 17:00:00 -3,5 -4,6 10 6 38 21 W 990,7 1,4 0,2
21.01.2020 16:00:00 -3,2 -5,5 21 11 48 26 W 990,5 1,9 0,0
21.01.2020 15:00:00 -2,9 -5,2 22 12 44 24 W 990,0 5 0,3
21.01.2020 14:00:00 -4,0 -5,1 27 15 43 23 W 990,6 0,2 0,3
21.01.2020 13:00:00 -3,5 -5,5 32 17 50 27 W 990,5 0,6 0,0
21.01.2020 12:00:00 -2,7 -7,0 27 15 51 28 W 990,5 7 0,0
21.01.2020 11:00:00 -2,9 -5,1 31 17 54 29 W 990,7 0,7 0,0
21.01.2020 10:00:00 -3,7 -4,3 26 14 46 25 W 991,1 0,2 0,6
21.01.2020 09:00:00 -3,6 -4,3 31 17 52 28 W 991,5 0,2 1,1
21.01.2020 08:00:00 -2,3 -5,0 28 15 56 31 W 990,9 3,0 0,3
21.01.2020 07:00:00 -3,1 -4,2 39 21 64 35 W 991,5 0,2 0,0
21.01.2020 06:00:00 -1,5 -5,5 31 17 56 31 W 990,5 5 0,1
21.01.2020 05:00:00 -1,7 -3,0 35 19 58 31 W 990,4 0,8 0,4
21.01.2020 04:00:00 -1,1 -2,9 22 12 33 18 W 989,7 1,6 0,1
21.01.2020 03:00:00 -1,4 -2,5 19 10 35 19 W 990,2 0,6 0,1
21.01.2020 02:00:00 -0,6 -3,3 22 12 40 21 W 990,2 16 0,0
21.01.2020 01:00:00 0,6 -5,4 17 9 27 15 W 990,5 50 0,0
21.01.2020 00:00:00 -1,3 -6,3 13 7 20 11 WSW 991,0 50 0,0
20.01.2020 23:00:00 -0,8 -3,5 7 4 16 9 W 990,9 50 0,0
20.01.2020 22:00:00 -0,9 -1,6 9 5 65 35 WNW 990,8 35 0,3
20.01.2020 21:00:00 1,5 -0,9 16 9 32 17 W 989,0 25 0,0
20.01.2020 20:00:00 1,5 -0,7 13 7 26 14 NW 988,3 50 0,0
20.01.2020 19:00:00 1,6 -0,2 16 9 25 13 W 989,0 10 0,0
20.01.2020 18:00:00 2,1 -0,5 14 8 27 15 W 989,8 13 0,0
20.01.2020 17:00:00 2,7 -1,1 16 9 30 16 W 991,1 48 0,0
20.01.2020 16:00:00 2,3 -0,5 17 9 34 18 W 992,5 35 0,0
20.01.2020 15:00:00 2,9 -0,6 22 12 47 25 W 994,3 50 0,0
20.01.2020 14:00:00 3,7 -1,1 29 16 50 27 WNW 995,2 50 0,0
20.01.2020 13:00:00 2,9 -0,2 32 18 57 31 WNW 997,2 8 0,0
20.01.2020 12:00:00 3,4 -1,2 32 17 49 27 WNW 998,6 26 0,0
20.01.2020 11:00:00 3,5 -1,7 28 15 50 27 W 999,2 31 0,0
20.01.2020 10:00:00 2,8 -0,7 31 17 51 28 W 999,3 17 0,0
20.01.2020 09:00:00 3,5 -1,1 33 18 51 28 W 999,1 27 0,1
20.01.2020 08:00:00 1,3 0,9 27 14 44 24 W 999,1 2,2 1,0
20.01.2020 07:00:00 -6,0 -6,9 5 3 12 6 WSW 1000,1 11 0,2
20.01.2020 06:00:00 -5,1 -6,3 5 3 15 8 SSW 1000,5 28 0,0
20.01.2020 05:00:00 -3,2 -4,2 8 4 23 12 N 1002,1 1,0 0,3
20.01.2020 04:00:00 -2,3 -4,1 5 3 26 14 SSE 1003,7 0,7 0,4
20.01.2020 03:00:00 -1,9 -3,6 8 5 22 12 SE 1005,9 1,9 0,0
20.01.2020 02:00:00 -1,8 -4,1 11 6 19 10 WSW 1008,1 23 0,0
20.01.2020 01:00:00 -2,8 -4,5 9 5 21 11 WSW 1009,8 43 0,0
20.01.2020 00:00:00 -2,4 -4,0 15 8 34 18 W 1011,1 50 0,0
19.01.2020 23:00:00 -11,9 -13,3 6 3 15 8 SSE 1013,5 38 0,0
19.01.2020 22:00:00 -12,6 -14,1 3 2 9 5 SE 1014,6 10 0,0
19.01.2020 21:00:00 -13,7 -15,4 0 0 11 6 N 1015,1 21 0,0
19.01.2020 20:00:00 -13,5 -15,1 3 2 8 4 ESE 1015,5 19 0,0
19.01.2020 19:00:00 -13,7 -15,4 0 0 7 4 N 1016,3 6 0,0
19.01.2020 18:00:00 -13,3 -14,9 4 2 9 5 WNW 1017,3 1,4 0,0
19.01.2020 17:00:00 -13,8 -15,5 5 3 11 6 E 1017,3 6 0,0
19.01.2020 16:00:00 -12,5 -14,1 6 3 10 6 W 1017,2 2,3 0,0
19.01.2020 15:00:00 -12,7 -14,3 4 2 10 5 E 1015,7 3,9 0,0
19.01.2020 14:00:00 -11,6 -13,0 4 2 6 4 WSW 1016,5 3,3 0,0
19.01.2020 13:00:00 -9,6 -10,8 4 2 8 4 WNW 1015,8 3,9 0,0
19.01.2020 12:00:00 -8,9 -10,1 4 2 5 3 NW 1015,1 6 0,0
19.01.2020 11:00:00 -8,9 -10,1 0 0 4 2 N 1013,8 7 0,0
19.01.2020 10:00:00 -9,1 -10,3 0 0 5 3 N 1013,1 12 0,0
19.01.2020 09:00:00 -9,1 -10,3 3 2 7 4 W 1012,9 11 0,0
19.01.2020 08:00:00 -9,1 -10,3 4 2 8 4 NW 1012,3 10 0,0
19.01.2020 07:00:00 -9,1 -10,2 4 2 7 4 WNW 1011,0 7 0,0
19.01.2020 06:00:00 -9,2 -10,3 5 3 7 4 W 1010,6 4,9 0,0
19.01.2020 05:00:00 -9,2 -10,4 2 1 4 2 W 1010,1 2,5 0,0
19.01.2020 04:00:00 -9,3 -10,5 0 0 3 2 N 1009,5 1,7 0,0
19.01.2020 03:00:00 -9,5 -10,7 2 1 3 2 E 1009,3 1,4 0,0
19.01.2020 02:00:00 -9,7 -10,9 2 1 5 3 E 1008,8 2,1 0,0
19.01.2020 01:00:00 -9,6 -10,8 3 2 5 3 E 1008,5 4,8 0,0
19.01.2020 00:00:00 -9,6 -10,8 3 2 11 6 E 1008,3 2,1 0,0
18.01.2020 23:00:00 -9,6 -10,8 8 4 12 6 E 1007,8 4,5 0,0
18.01.2020 22:00:00 -9,5 -10,8 5 3 12 7 E 1007,4 7 0,0
18.01.2020 21:00:00 -9,5 -10,7 5 3 8 4 E 1007,2 6 0,0
18.01.2020 20:00:00 -9,4 -10,6 3 1 5 3 E 1007,2 1,2 0,0
18.01.2020 19:00:00 -9,5 -10,7 4 2 8 4 E 1007,2 3,2 0,0
18.01.2020 18:00:00 -9,6 -10,8 0 0 9 5 N 1007,2 13 0,0
18.01.2020 17:00:00 -9,6 -10,8 5 3 10 6 E 1007,3 6 0,0
18.01.2020 16:00:00 -9,4 -10,6 5 3 12 7 E 1007,2 3,4 0,0
18.01.2020 15:00:00 -9,5 -10,7 6 3 13 7 E 1007,2 4,2 0,0
18.01.2020 14:00:00 -9,5 -10,7 7 4 13 7 E 1007,2 2,0 0,0
18.01.2020 13:00:00 -9,4 -10,6 6 4 13 7 E 1007,5 2,1 0,0

tt = Température de l'air
td = dewpoint
ff = Vitesse du vent
fx = gusts
dd = Direction du vent
ppp = reduced air pressure
vv = visibility
rr = Quantités de précipitations

stations d'obs. à proximité